Cincinnati, OH

11:47 AM EST on December 13, 2019 (GMT -0500)
Cincinnati Municipal-Lunken

Weather History for KLUK - September, 2019

Change the Weather History Date:

Sunday, September 29, 2019

  Actual Average Record
Temperature  
Mean Temperature 76 °F -  
Max Temperature 91 °F 73 °F 90 °F (1971)
Min Temperature 61 °F 49 °F 34 °F (1951)
Cooling Degree Days 11    
Growing Degree Days 26 (Base 50)    
Moisture  
Dew Point 66 °F    
Average Humidity 83    
Maximum Humidity 100    
Minimum Humidity 42    
Precipitation  
Precipitation 0.00 in - - ()
Sea Level Pressure  
Sea Level Pressure 30.17 in    
Wind  
Wind Speed 1 mph ()    
Max Wind Speed 13 mph    
Max Gust Speed -    
Visibility 8.3 miles    
Events Fog    
Averages and records for this station are not official NWS values.
T = Trace of Precipitation, MM = Missing Value Source: Averaged Metar Reports

Daily Weather History Graph

Daily Weather History Graph

Search for Another Location

Airport or City:

Astronomy

Sep. 29, 2019 Rise Set
Actual Time 7:31 AM EDT 7:23 PM EDT
Civil Twilight 7:04 AM EDT 7:50 PM EDT
Nautical Twilight 6:33 AM EDT 8:21 PM EDT
Astronomical Twilight 6:02 AM EDT 8:52 PM EDT
Moon 8:21 AM EDT (9/29) 8:24 PM EDT (9/29)
Length of Visible Light 12h 45m
Length of Day
11h 52m
New Moon, 1% of the Moon is Illuminated
Sep 29
New Moon
Oct 5
First Quarter
Oct 13
Full
Oct 21
Last Quarter
Oct 27
New

Hourly Weather History & Observations

Time (EDT) Temp. Heat Index Dew Point Humidity Pressure Visibility Wind Dir Wind Speed Gust Speed Precip Events Conditions
12:53 AM 66.0 °F - 64.0 °F 93% 30.17 in 10.0 mi Calm Calm - N/A   Clear
1:53 AM 66.0 °F - 64.9 °F 96% 30.17 in 10.0 mi Calm Calm - N/A   Clear
2:53 AM 66.0 °F - 64.9 °F 96% 30.17 in 10.0 mi Calm Calm - N/A   Clear
3:53 AM 64.9 °F - 64.0 °F 97% 30.17 in 9.0 mi East 3.5 mph - N/A   Clear
4:53 AM 64.9 °F - 64.0 °F 97% 30.17 in 9.0 mi Calm Calm - N/A   Clear
5:53 AM 63.0 °F - 63.0 °F 100% 30.17 in 8.0 mi Calm Calm - N/A   Clear
6:19 AM 63.0 °F - 63.0 °F 100% 30.18 in 1.5 mi ENE 3.5 mph - N/A   Clear
6:27 AM 63.0 °F - 63.0 °F 100% 30.19 in 0.5 mi Calm Calm - N/A Fog Fog
6:37 AM 63.0 °F - 63.0 °F 100% 30.19 in 6.0 mi Calm Calm - N/A   Clear
6:44 AM 61.0 °F - 61.0 °F 100% 30.20 in 6.0 mi Calm Calm - N/A   Partly Cloudy
6:53 AM 62.1 °F - 61.0 °F 96% 30.19 in 6.0 mi Calm Calm - N/A   Clear
7:29 AM 62.1 °F - 62.1 °F 100% 30.20 in 1.8 mi Calm Calm - N/A   Clear
7:45 AM 63.0 °F - 63.0 °F 100% 30.21 in 6.0 mi Calm Calm - N/A   Partly Cloudy
7:53 AM 63.0 °F - 63.0 °F 100% 30.20 in 6.0 mi Calm Calm - N/A   Partly Cloudy
8:53 AM 69.1 °F - 66.0 °F 90% 30.21 in 10.0 mi NE 3.5 mph - N/A   Partly Cloudy
9:53 AM 72.0 °F - 66.9 °F 84% 30.21 in 10.0 mi NE 4.6 mph - N/A   Clear
10:53 AM 75.0 °F - 68.0 °F 79% 30.21 in 10.0 mi Calm Calm - N/A   Clear
11:53 AM 81.0 °F 83.8 °F 68.0 °F 65% 30.19 in 10.0 mi Calm Calm - N/A   Clear
12:53 PM 82.9 °F 86.5 °F 69.1 °F 63% 30.19 in 10.0 mi SW 3.5 mph - N/A   Partly Cloudy
1:53 PM 86.0 °F 89.4 °F 68.0 °F 55% 30.16 in 10.0 mi South 6.9 mph - N/A   Clear
2:53 PM 90.0 °F 92.8 °F 66.9 °F 46% 30.13 in 10.0 mi South 9.2 mph - N/A   Scattered Clouds
3:53 PM 91.0 °F 93.0 °F 64.9 °F 42% 30.10 in 10.0 mi SSW 12.7 mph - N/A   Mostly Cloudy
4:53 PM 88.0 °F 89.6 °F 64.9 °F 46% 30.09 in 10.0 mi SW 5.8 mph - N/A   Overcast
5:53 PM 87.1 °F 91.3 °F 69.1 °F 55% 30.10 in 10.0 mi ENE 5.8 mph - N/A   Mostly Cloudy
6:53 PM 82.0 °F 86.3 °F 71.1 °F 69% 30.12 in 10.0 mi Calm Calm - N/A   Scattered Clouds
7:53 PM 75.9 °F - 70.0 °F 82% 30.11 in 10.0 mi Calm Calm - N/A   Clear
8:53 PM 75.9 °F - 69.1 °F 79% 30.14 in 10.0 mi NE 4.6 mph - N/A   Clear
9:53 PM 75.0 °F - 68.0 °F 79% 30.15 in 10.0 mi NNE 3.5 mph - N/A   Clear
10:53 PM 71.1 °F - 68.0 °F 90% 30.15 in 10.0 mi Calm Calm - N/A   Clear
11:53 PM 68.0 °F - 68.0 °F 100% 30.14 in 10.0 mi Calm Calm - N/A   Clear